Tracking 28518 objects as of 2-Mar-2024
HD Live streaming from Space Station
objects crossing your sky now

CZ-3B R/B

Track CZ-3B R/B now!


NORAD ID: 58254
Int'l Code: 2023-172B
Perigee: 111.9 km
Apogee: 30,395.5 km
Inclination: 28.2 °
Period: 527.5 minutes
Semi major axis: 21624 km
RCS: Unknown
Launch date: November 9, 2023
Source: People's Republic of China (PRC)
Launch site: Xichang Space Center, China (XSC)

Note: This is a ROCKET BODY
Your satellite tracking list
Your tracking list is empty




NASA's NSSDC Master Catalog

Two Line Element Set (TLE):
1 58254U 23172B   24052.35325675  .00423218 -24205-4  22974-3 0  9993
2 58254  28.2026 172.0458 7002074 250.5858  26.2003  2.73008749  2618
Source of the keplerian elements: AFSPC